When you browse on this site, cookies collect data to enhance your experience and personalize the content and advertising you see.
Visit our Privacy Policy to learn more. By continuing to use the site, you agree to this use of cookies and data.
EN

Hourly Weather Gogolice

Today, 25 September, Friday

Time Temperature Precipitation Wind Pressure Humidity
00:00 +15°C° 0 mm 2 mps 744 mmHg 88%
01:00 +15°C° 0 mm 2 mps 744 mmHg 91%
02:00 +14°C° 0 mm 3 mps 743 mmHg 88%
03:00 +14°C° 0 mm 3 mps 742 mmHg 86%
04:00 +13°C° 0 mm 3 mps 742 mmHg 83%
05:00 +14°C° 0.1 mm 4 mps 741 mmHg 83%
06:00 +15°C° 0.1 mm 4 mps 740 mmHg 83%
07:00 +15°C° 0.1 mm 4 mps 740 mmHg 83%
08:00 +17°C° 0.3 mm 4 mps 739 mmHg 81%
09:00 +17°C° 0.3 mm 4 mps 739 mmHg 80%
10:00 +17°C° 0.3 mm 5 mps 738 mmHg 79%
11:00 +17°C° 3.2 mm 4 mps 738 mmHg 83%
12:00 +16°C° 3.2 mm 3 mps 738 mmHg 87%
13:00 +14°C° 3.2 mm 3 mps 738 mmHg 90%
14:00 +14°C° 0.6 mm 3 mps 738 mmHg 90%
15:00 +14°C° 0.6 mm 3 mps 738 mmHg 89%
16:00 +16°C° 0.6 mm 3 mps 738 mmHg 88%
17:00 +14°C° 0 mm 3 mps 739 mmHg 88%
18:00 +13°C° 0 mm 3 mps 739 mmHg 88%
19:00 +13°C° 0 mm 3 mps 739 mmHg 89%
20:00 +12°C° 0 mm 3 mps 740 mmHg 88%
21:00 +12°C° 0 mm 2 mps 740 mmHg 87%
22:00 +10°C° 0 mm 2 mps 740 mmHg 87%
23:00 +10°C° 0 mm 2 mps 740 mmHg 86%

Tomorrow, 26 September, Saturday

Time Temperature Precipitation Wind Pressure Humidity
00:00 +10°C° 0 mm 2 mps 740 mmHg 84%
01:00 +10°C° 0 mm 2 mps 740 mmHg 83%
02:00 +10°C° 0 mm 2 mps 740 mmHg 83%
03:00 +10°C° 0 mm 2 mps 739 mmHg 83%
04:00 +10°C° 0 mm 2 mps 739 mmHg 83%
05:00 +10°C° 0 mm 3 mps 739 mmHg 82%
06:00 +10°C° 0 mm 4 mps 738 mmHg 82%
07:00 +10°C° 0 mm 4 mps 738 mmHg 81%
08:00 +10°C° 0.4 mm 5 mps 738 mmHg 83%
09:00 +10°C° 0.4 mm 5 mps 738 mmHg 85%
10:00 +12°C° 0.4 mm 5 mps 738 mmHg 86%
11:00 +11°C° 2 mm 6 mps 737 mmHg 89%
12:00 +13°C° 2 mm 6 mps 737 mmHg 91%
13:00 +13°C° 2 mm 6 mps 736 mmHg 94%
14:00 +14°C° 0.6 mm 5 mps 736 mmHg 94%
15:00 +15°C° 0.6 mm 4 mps 736 mmHg 95%
16:00 +16°C° 0.6 mm 3 mps 736 mmHg 95%
17:00 +15°C° 0.1 mm 4 mps 736 mmHg 94%
18:00 +15°C° 0.1 mm 4 mps 736 mmHg 92%
19:00 +14°C° 0.1 mm 5 mps 737 mmHg 91%
20:00 +13°C° 0 mm 4 mps 737 mmHg 91%
21:00 +12°C° 0 mm 4 mps 738 mmHg 91%
22:00 +11°C° 0 mm 3 mps 739 mmHg 91%
23:00 +11°C° 0 mm 3 mps 739 mmHg 91%

Day after tomorrow, 27 September, Sunday

Time Temperature Precipitation Wind Pressure Humidity
00:00 +10°C° 0 mm 3 mps 739 mmHg 90%
01:00 +10°C° 0 mm 3 mps 740 mmHg 90%
02:00 +10°C° 0 mm 3 mps 740 mmHg 90%
03:00 +9°C° 0 mm 2 mps 741 mmHg 91%
04:00 +9°C° 0 mm 2 mps 741 mmHg 91%
05:00 +9°C° 0 mm 2 mps 741 mmHg 91%
06:00 +9°C° 0 mm 2 mps 742 mmHg 90%
07:00 +9°C° 0 mm 2 mps 742 mmHg 89%
08:00 +9°C° 0.1 mm 2 mps 742 mmHg 87%
09:00 +11°C° 0.1 mm 1 mps 743 mmHg 85%
10:00 +11°C° 0.1 mm 1 mps 743 mmHg 82%
11:00 +11°C° 0 mm 1 mps 743 mmHg 83%
12:00 +12°C° 0 mm 1 mps 743 mmHg 83%
13:00 +12°C° 0 mm 1 mps 743 mmHg 83%
14:00 +11°C° 0.3 mm 1 mps 743 mmHg 85%
15:00 +10°C° 0.3 mm 2 mps 743 mmHg 88%
16:00 +10°C° 0.3 mm 2 mps 743 mmHg 91%
17:00 +10°C° 0.7 mm 2 mps 743 mmHg 91%
18:00 +10°C° 0.7 mm 3 mps 743 mmHg 92%
19:00 +10°C° 0.7 mm 4 mps 743 mmHg 93%
20:00 +10°C° 0.6 mm 4 mps 744 mmHg 94%
21:00 +10°C° 0.6 mm 4 mps 744 mmHg 94%
22:00 +10°C° 0.6 mm 3 mps 744 mmHg 95%
23:00 +11°C° 0.1 mm 3 mps 744 mmHg 95%

28 September, Monday

Time Temperature Precipitation Wind Pressure Humidity
00:00 +11°C° 0.1 mm 3 mps 744 mmHg 96%
01:00 +11°C° 0.1 mm 3 mps 744 mmHg 96%
02:00 +12°C° 0.5 mm 2 mps 744 mmHg 97%
03:00 +12°C° 0.5 mm 2 mps 744 mmHg 97%
04:00 +13°C° 0.5 mm 2 mps 744 mmHg 98%
05:00 +13°C° 0.1 mm 2 mps 744 mmHg 97%
06:00 +13°C° 0.1 mm 2 mps 744 mmHg 97%
07:00 +13°C° 0.1 mm 1 mps 744 mmHg 97%
08:00 +14°C° 0.1 mm 2 mps 744 mmHg 94%
09:00 +15°C° 0.1 mm 2 mps 744 mmHg 91%
10:00 +16°C° 0.1 mm 2 mps 744 mmHg 88%
11:00 +17°C° 0.7 mm 2 mps 744 mmHg 85%
12:00 +17°C° 0.7 mm 3 mps 744 mmHg 83%
13:00 +18°C° 0.7 mm 3 mps 744 mmHg 80%
14:00 +17°C° 0.6 mm 3 mps 744 mmHg 81%
15:00 +17°C° 0.6 mm 4 mps 744 mmHg 82%
16:00 +15°C° 0.6 mm 4 mps 744 mmHg 84%
17:00 +14°C° 0.1 mm 3 mps 745 mmHg 86%
18:00 +13°C° 0.1 mm 3 mps 745 mmHg 89%
19:00 +13°C° 0.1 mm 2 mps 745 mmHg 92%
20:00 +13°C° 0 mm 2 mps 745 mmHg 90%
21:00 +12°C° 0 mm 2 mps 745 mmHg 89%
22:00 +12°C° 0 mm 2 mps 746 mmHg 88%
23:00 +12°C° 0 mm 2 mps 746 mmHg 89%

29 September, Tuesday

Time Temperature Precipitation Wind Pressure Humidity
00:00 +12°C° 0 mm 2 mps 746 mmHg 90%
01:00 +11°C° 0 mm 3 mps 746 mmHg 92%
02:00 +10°C° 0 mm 3 mps 746 mmHg 92%
03:00 +10°C° 0 mm 3 mps 747 mmHg 93%
04:00 +10°C° 0 mm 3 mps 747 mmHg 94%
05:00 +10°C° 0.1 mm 3 mps 747 mmHg 94%
06:00 +11°C° 0.1 mm 4 mps 747 mmHg 93%
07:00 +11°C° 0.1 mm 4 mps 748 mmHg 93%
08:00 +12°C° 0 mm 4 mps 748 mmHg 88%
09:00 +13°C° 0 mm 4 mps 748 mmHg 84%
10:00 +15°C° 0 mm 4 mps 749 mmHg 79%
11:00 +15°C° 0.2 mm 4 mps 749 mmHg 76%
12:00 +15°C° 0.2 mm 4 mps 749 mmHg 74%
13:00 +17°C° 0.2 mm 4 mps 750 mmHg 71%
14:00 +17°C° 0.1 mm 4 mps 750 mmHg 72%
15:00 +17°C° 0.1 mm 3 mps 750 mmHg 73%
16:00 +16°C° 0.1 mm 3 mps 751 mmHg 73%
17:00 +14°C° 0 mm 3 mps 751 mmHg 79%
18:00 +14°C° 0 mm 2 mps 751 mmHg 84%
19:00 +12°C° 0 mm 2 mps 752 mmHg 90%
20:00 +12°C° 0 mm 1 mps 752 mmHg 91%
21:00 +12°C° 0 mm 1 mps 752 mmHg 92%
22:00 +11°C° 0 mm 1 mps 753 mmHg 93%
23:00 +11°C° 0 mm 1 mps 753 mmHg 93%

30 September, Wednesday

Time Temperature Precipitation Wind Pressure Humidity
00:00 +11°C° 0 mm 1 mps 753 mmHg 94%
01:00 +9°C° 0 mm 2 mps 753 mmHg 94%
02:00 +9°C° 0 mm 2 mps 753 mmHg 95%
03:00 +10°C° 0 mm 1 mps 753 mmHg 95%
04:00 +10°C° 0 mm 1 mps 753 mmHg 95%
05:00 +10°C° 0 mm 1 mps 753 mmHg 95%
06:00 +10°C° 0 mm 1 mps 753 mmHg 95%
07:00 +10°C° 0 mm 1 mps 753 mmHg 96%
08:00 +12°C° 0 mm 1 mps 753 mmHg 90%
09:00 +14°C° 0 mm 2 mps 753 mmHg 84%
10:00 +15°C° 0 mm 2 mps 753 mmHg 78%
11:00 +16°C° 0 mm 2 mps 753 mmHg 75%
12:00 +16°C° 0 mm 2 mps 753 mmHg 71%
13:00 +17°C° 0 mm 2 mps 753 mmHg 68%
14:00 +17°C° 0 mm 2 mps 752 mmHg 68%
15:00 +17°C° 0 mm 2 mps 752 mmHg 68%
16:00 +17°C° 0 mm 2 mps 752 mmHg 68%
17:00 +16°C° 0 mm 2 mps 752 mmHg 73%
18:00 +15°C° 0 mm 1 mps 752 mmHg 77%
19:00 +14°C° 0 mm 1 mps 752 mmHg 81%
20:00 +13°C° 0 mm 1 mps 752 mmHg 83%
21:00 +13°C° 0 mm 1 mps 752 mmHg 85%
22:00 +13°C° 0 mm 1 mps 752 mmHg 87%
23:00 +12°C° 0 mm 1 mps 752 mmHg 89%
Show more